Showing default

USA 97, 22915

Orbit data source: Space-Track

USA 97, 22915 is an American payload satellite in GEO that was launched on Sun, 28 Nov 1993 UTC via an ATLAS II launch vehicle from the Air Force Eastern Test Range (AFETR). Payloads include a variety of satellites, spacecraft, and rockets equipped with specific instruments for various scientific and technological missions. These include communications satellites like Starlink; space stations such as the ISS; scientific satellites like the Hubble; Earth observation satellites from companies like Planet Labs, Umbra, and HawkEye 360; GPS; miniature CubeSats for education and research; and military/defense satellites.

Not visible in the next 10 days
USA 97 details
Identifier
22915, 1993-074A
Orbit
GEO
Last TLE update1 day ago
Origin
Flag of USAFSMC/DISA (US)
ManufacturerMM/Valley Forge
MissionNon-operational Defense Communications
Bus & MotorDSCS III, AOCS
Mass~1,232 kg wet, ~900 kg dry
Launch date (UTC)
1993-11-28 (31 years ago)
Launch vehicle
ATLAS II
Launch site
Air Force Eastern Test Range (AFETR)
Object type
Payload
Rocket body
Debris
Shape & HBRHex Poly + 2 Pan, 1.93 m
Radar Cross Section8.439 m²

Expand to show TLE details & history

TLE from 1 day ago
0 USA 97
1 22915U 93074A   25035.28337275 -.00000241  00000-0  00000-0 0  9992
2 22915  13.3247  18.9058 0005300 354.0654   6.2979  0.98535548 19995
Epoch: 2025-02-04T06:48Z
Definitive object data (Epoch: 2025-02-04T06:48:03.405Z)
Latitude0.07763°
Longitude142.57002°
Altitude36,257.576 km
Speed3.058 km/s
True Right ascension01h 17m 06s
True Declination0° 04' 39"
Sunlit
Object was in daylight at TLE epoch
Visualization TLE readout
Latitude-1.33182°
Longitude136.6063°
Altitude36,257.73 km
Speed3.058 km/s
Apparent Right ascension00h 31m 20s
Apparent Declination-6° 23' 39"
Sunlit
Object is in daylight
Visualization observer readout
Local Sidereal Time08:46:48
Azimuth288.115° WNW
Elevation-29.75°
Doppler factor1
Orbital elements
Apogee altitude36,304.044 km
Perigee altitude36,258.825 km
Semi-major axis42,659.572 km
Eccentricity0.00053
Inclination13.3247°
RAAN18.9058°
Arg. of periapsis354.0654°
True anomaly6.30457°
Mean anomaly6.2979°
Eccentric anomaly6.30123°
Mean motion0.24633 °/min
BSTARUnknown
Orbital period1461.45 mins
Loading historical data...
22915 neighbors
Authenticating...
Loading maneuver chart data...
Loading historical data...
Loading historical data...
Loading historical data...
Loading historical data...
Loading historical data...
Loading historical data...
Loading historical data...
Other satellites on launch #74 in the year 1993 (1993-11-28 UTC)

USA 97 Visibility forecast

Observer location: undefined°, undefined

USA 97 is not visible in the next 10 days
Span
Click to sort rows by Start time (UTC) header in descending order
Start Az.
Max El. time (UTC)
Max El. Az.
Max El.
End time (UTC)
End Az.
|